FW3802 Weather Reports


Display with metric or nautical units.
time (UTC)temp
F
wind
direction
speed
MPH
gust
MPH
rain 1hr
in
rain 24hr
in
rain mn
in
humidity
%
barometer
mb
20260506214148 73 0 0.0 3.0 0.00 0.09 0.09 79 1011.8
20260506213149 73 46 1.0 4.0 0.00 0.09 0.09 79 1011.7
20260506212148 73 343 0.0 2.0 0.00 0.09 0.09 79 1011.6
20260506211148 72 319 0.0 1.0 0.00 0.09 0.09 79 1011.5
20260506210151 72 335 0.0 1.0 0.00 0.09 0.09 80 1011.7
20260506205626 72 323 1.0 4.0 0.00 0.09 0.09 79 1011.7
20260506204148 72 328 1.0 6.0 0.00 0.09 0.09 79 1011.9
20260506203149 72 330 1.0 6.0 0.00 0.09 0.09 79 1012.2
20260506202625 72 267 1.0 3.0 0.00 0.09 0.09 79 1012.3
20260506201143 72 326 0.0 4.0 0.00 0.09 0.09 80 1012.2
20260506201100 71 41 0.0 8.0 0.00 0.09 0.09 81 1012.4
20260506195142 71 305 0.0 3.0 0.00 0.09 0.09 81 1012.4
20260506194142 71 84 1.0 5.0 0.00 0.09 0.09 82 1012.4
20260506193142 70 335 0.0 3.0 0.00 0.09 0.09 82 1012.2
20260506192142 70 302 0.0 1.0 0.00 0.09 0.09 83 1012.3
20260506191145 69 139 0.0 5.0 0.00 0.09 0.09 84 1012.5
20260506190143 69 46 0.0 6.0 0.00 0.09 0.09 85 1012.5
20260506185142 69 235 0.0 5.0 0.00 0.09 0.09 86 1012.5
20260506184136 68 347 0.0 2.0 0.00 0.09 0.09 88 1012.8
20260506183136 67 259 0.0 3.0 0.00 0.09 0.09 88 1012.5
20260506182610 67 311 0.0 4.0 0.00 0.09 0.09 88 1012.7
20260506181139 67 245 0.0 3.0 0.00 0.09 0.09 88 1012.3
20260506180138 67 178 0.0 3.0 0.01 0.09 0.09 89 1012.5
20260506175136 67 94 0.0 3.0 0.02 0.09 0.09 91 1013.2
20260506174136 66 122 0.0 2.0 0.09 0.09 0.09 91 1013.4
20260506173138 65 98 0.0 2.0 0.09 0.09 0.09 90 1013.8
20260506172138 65 37 0.0 1.0 0.09 0.09 0.09 91 1014.6
20260506171130 66 103 0.0 1.0 0.09 0.09 0.09 89 1014.3
20260506170129 66 77 0.0 1.0 0.08 0.08 0.08 86 1015.0
20260506165132 68 293 0.0 4.0 0.07 0.07 0.08 81 1014.7
20260506164131 70 275 0.0 3.0 0.00 0.00 0.00 72 1015.1
20260506163130 71 291 0.0 3.0 0.00 0.00 0.00 70 1014.4
20260506162129 72 255 0.0 3.0 0.00 0.00 0.00 68 1014.2
20260506161130 71 314 0.0 1.0 0.00 0.00 0.00 68 1014.0
20260506160130 71 278 0.0 1.0 0.00 0.00 0.00 70 1013.7
20260506155131 71 340 1.0 5.0 0.00 0.00 0.00 69 1013.7
20260506154604 71 44 0.0 4.0 0.00 0.00 0.00 70 1013.6
20260506154042 70 352 0.0 4.0 0.00 0.00 0.00 71 1013.5
20260506152124 70 34 0.0 1.0 0.00 0.00 0.00 73 1013.3
20260506151125 69 52 0.0 4.0 0.00 0.00 0.00 74 1013.2
20260506150121 68 112 1.0 7.0 0.00 0.00 0.00 75 1013.2
20260506145122 67 243 0.0 1.0 0.00 0.00 0.00 77 1013.4
20260506144118 67 103 0.0 1.0 0.00 0.00 0.00 76 1013.3
20260506144027 66 56 0.0 1.0 0.00 0.00 0.00 76 1013.7
20260506142115 66 22 0.0 3.0 0.00 0.00 0.00 77 1013.7
20260506141116 66 108 0.0 2.0 0.00 0.00 0.00 77 1013.8
20260506140115 66 31 0.0 2.0 0.00 0.00 0.00 77 1013.7
20260506135551 66 243 0.0 1.0 0.00 0.00 0.00 78 1013.4
20260506134114 65 245 0.0 1.0 0.00 0.00 0.00 77 1013.3
20260506133114 65 93 0.0 2.0 0.00 0.00 0.00 78 1013.4
20260506132114 65 197 0.0 1.0 0.00 0.00 0.00 78 1013.3
20260506131113 64 357 0.0 1.0 0.00 0.00 0.00 78 1013.5
20260506130114 64 333 0.0 5.0 0.00 0.00 0.00 79 1013.5
20260506125114 63 101 0.0 3.0 0.00 0.00 0.00 79 1013.1
20260506124112 63 136 0.0 2.0 0.00 0.00 0.00 79 1013.1
20260506123112 63 45 0.0 1.0 0.00 0.00 0.00 79 1013.3
20260506122111 63 71 0.0 1.0 0.00 0.00 0.00 78 1013.7
20260506121109 63 103 0.0 1.0 0.00 0.00 0.00 78 1014.0
20260506121037 63 221 0.0 2.0 0.00 0.00 0.00 78 1014.1
20260506115109 62 330 0.0 1.0 0.00 0.00 0.00 79 1014.1
20260506114110 62 188 0.0 0.0 0.00 0.00 0.00 79 1013.7
20260506113111 62 188 0.0 0.0 0.00 0.00 0.00 78 1013.7
20260506113033 62 86 0.0 2.0 0.00 0.00 0.00 78 1013.6
20260506111110 62 179 0.0 1.0 0.00 0.00 0.00 78 1013.4
20260506110553 62 44 0.0 1.0 0.00 0.00 0.00 79 1013.4
20260506105107 62 335 0.0 1.0 0.00 0.00 0.00 79 1013.2
20260506104111 62 71 0.0 4.0 0.00 0.00 0.00 78 1013.1
20260506104023 62 19 0.0 2.0 0.00 0.00 0.00 78 1012.7
20260506102101 62 116 0.0 4.0 0.00 0.00 0.00 77 1012.5
20260506101101 62 121 0.0 3.0 0.00 0.00 0.00 77 1012.5
20260506095105 62 277 0.0 1.0 0.00 0.00 0.00 77 1012.7
20260506094101 63 247 0.0 3.0 0.00 0.00 0.00 77 1012.7
20260506093101 63 357 0.0 3.0 0.00 0.00 0.00 78 1012.7
20260506092101 63 88 0.0 2.0 0.00 0.00 0.00 77 1012.9
20260506091101 63 2 0.0 1.0 0.00 0.00 0.00 77 1012.8
20260506090055 63 46 0.0 4.0 0.00 0.00 0.00 77 1012.9
20260506085056 63 77 1.0 3.0 0.00 0.00 0.00 77 1013.1
20260506084055 63 96 0.0 4.0 0.00 0.00 0.00 75 1013.2
20260506083055 64 23 1.0 4.0 0.00 0.00 0.00 75 1013.4
20260506082055 64 245 0.0 5.0 0.00 0.00 0.00 75 1013.5
20260506081055 64 13 0.0 3.0 0.00 0.00 0.00 76 1013.3
20260506073054 65 266 0.0 2.0 0.00 0.00 0.00 75 1013.3
20260506072054 65 234 0.0 3.0 0.00 0.00 0.00 74 1013.4
20260506071053 65 141 0.0 2.0 0.00 0.00 0.00 73 1013.4
20260506062053 66 115 1.0 5.0 0.00 0.00 0.00 71 1013.5
20260506061052 66 219 0.0 7.0 0.00 0.00 0.00 70 1013.5
20260506051043 68 130 1.0 5.0 0.00 0.00 0.00 67 1013.5
20260506045043 68 158 0.0 3.0 0.00 0.00 0.00 66 1013.7
20260506044044 68 219 0.0 5.0 0.00 0.00 0.00 66 1013.6
20260506043037 68 101 0.0 1.0 0.00 0.00 0.00 65 1013.7
20260506042040 69 143 0.0 5.0 0.00 0.00 0.00 64 1013.7
20260506041037 69 89 0.0 3.0 0.00 0.00 0.00 63 1013.6
20260506040038 69 196 0.0 3.0 0.00 0.00 0.00 61 1013.4
20260506035036 69 103 0.0 4.0 0.00 0.00 0.00 60 1013.5
20260506034037 68 101 0.0 2.0 0.00 0.00 0.00 60 1013.5
20260506033037 68 89 0.0 1.0 0.00 0.00 0.00 60 1013.5
20260506032037 67 114 0.0 0.0 0.00 0.00 0.00 60 1013.4
20260506031037 68 114 0.0 0.0 0.00 0.00 0.00 59 1013.3
20260506030035 68 114 0.0 0.0 0.00 0.00 0.00 60 1013.3
20260506025034 68 114 0.0 0.0 0.00 0.00 0.00 60 1013.4
20260506024033 68 113 0.0 0.0 0.00 0.00 0.00 58 1013.5
20260506023033 68 114 0.0 0.0 0.00 0.00 0.00 58 1013.6
20260506022033 68 113 0.0 0.0 0.00 0.00 0.00 57 1013.7
20260506021510 69 113 0.0 0.0 0.00 0.00 0.00 56 1013.7
20260506020034 69 114 0.0 0.0 0.00 0.00 0.00 55 1013.8
20260506015032 69 113 0.0 0.0 0.00 0.00 0.00 55 1013.7
20260506014030 69 113 0.0 0.0 0.00 0.00 0.00 55 1013.8
20260506013031 70 114 0.0 0.0 0.00 0.00 0.00 54 1013.6
20260506012030 70 113 0.0 0.0 0.00 0.00 0.00 52 1013.5
20260506011030 71 114 0.0 0.0 0.00 0.00 0.00 51 1013.5
20260506010030 71 113 0.0 1.0 0.00 0.00 0.00 51 1013.4
20260506005030 71 96 0.0 0.0 0.00 0.00 0.00 50 1013.3
20260506004030 71 96 0.0 0.0 0.00 0.00 0.00 49 1013.2
20260506003030 72 96 0.0 0.0 0.00 0.00 0.00 48 1013.0
20260506002032 73 96 0.0 0.0 0.00 0.00 0.00 48 1013.1
20260506001511 73 96 0.0 0.0 0.00 0.00 0.00 47 1013.1
20260506000952 74 96 0.0 0.0 0.00 0.00 0.00 46 1013.1
20260505235028 75 96 0.0 3.0 0.00 0.00 0.00 45 1013.0
20260505234027 75 277 0.0 3.0 0.00 0.00 0.00 46 1012.9
20260505233025 75 251 0.0 2.0 0.00 0.00 0.00 45 1012.8
20260505232025 76 119 0.0 2.0 0.00 0.00 0.00 44 1012.9
20260505231504 76 177 0.0 2.0 0.00 0.00 0.00 44 1012.7
20260505230023 76 82 0.0 3.0 0.00 0.00 0.00 43 1012.8
20260505225022 76 113 0.0 4.0 0.00 0.00 0.00 44 1013.0
20260505224022 76 61 0.0 3.0 0.00 0.00 0.00 44 1012.9
20260505223022 77 264 0.0 3.0 0.00 0.00 0.00 43 1012.8
20260505222503 77 256 0.0 3.0 0.00 0.00 0.00 42 1012.8
20260505221024 77 350 1.0 5.0 0.00 0.00 0.00 43 1012.9
20260505220016 77 16 1.0 6.0 0.00 0.00 0.00 42 1013.0